GFSNE_prec_cthk_000.txt.gz
RH
51 55 60 63 64 65 67 75 80 77 71 75 83 84 81 80 77 79 80 76 79 80 77 82 81 79 74 78 83 83 89 82 81 81 78 79 74 67
44 50 55 59 61 63 65 69 77 83 78 72 69 75 82 81 80 84 83 83 85 81 79 87 84 85 84 87 87 87 87 89 87 87 89 85 75 68
51 54 54 56 57 59 61 62 62 67 72 55 64 64 71 72 82 83 86 88 86 86 82 80 84 88 93 92 91 92 93 93 93 94 91 91 80 70
56 57 57 58 55 55 56 57 58 59 67 67 56 60 63 61 66 76 82 85 88 92 91 84 84 88 90 96 95 98 98 99 96 98 96 90 86 75
53 54 54 55 55 54 55 57 57 57 59 64 58 59 61 60 61 63 69 77 86 93 92 88 89 87 90 92 99 94 96 99 97 99 97 89 80 76
47 50 51 50 50 47 51 54 56 60 62 65 69 66 66 64 69 66 65 70 77 91 98 98 89 88 97 99 98 98 98 99 99 99 96 91 79 80
43 42 41 43 44 52 51 48 55 62 62 64 64 72 76 73 74 72 68 68 66 91 93 98 97 97 92 98 98 94 98 98 99 98 96 83 79 74
41 41 40 41 43 42 42 47 51 59 61 63 60 57 56 62 71 76 78 78 74 68 89 91 96 96 98 97 99 96 98 99 98 96 95 86 81 76
37 36 34 36 42 42 39 40 44 52 61 65 63 57 59 57 65 68 73 72 82 81 83 97 97 98 99 96 98 98 98 98 97 96 92 83 76 67
31 29 28 31 34 39 40 43 44 51 56 64 64 57 58 59 65 69 73 70 73 84 84 90 96 97 97 98 98 98 98 98 98 95 84 74 66 57
18 15 21 27 29 41 52 54 53 53 59 64 62 60 60 62 70 77 76 80 74 85 92 97 99 97 99 98 98 98 98 98 96 84 71 63 54 50
26 27 29 30 31 32 44 55 65 68 67 61 61 62 69 68 72 78 85 82 86 91 98 99 98 99 98 98 98 98 98 96 82 71 62 54 51 42
41 38 30 26 27 29 38 63 74 74 72 71 65 68 71 72 74 76 88 93 95 98 99 99 98 98 98 98 98 98 93 82 72 60 57 53 41 33
44 36 31 30 29 36 44 63 73 80 82 74 72 78 78 75 76 82 97 98 99 98 97 98 98 98 98 97 97 92 77 62 55 57 45 34 29 31
44 39 32 32 34 35 40 64 75 86 83 77 85 84 84 78 84 98 98 98 98 98 98 98 98 98 98 97 83 69 62 56 48 36 31 28 27 24
42 36 31 32 30 33 43 73 81 89 82 88 83 85 84 88 97 98 98 98 97 97 98 97 97 97 89 77 65 60 53 41 33 33 31 29 29 31
42 36 28 25 25 34 53 76 81 88 94 88 86 87 93 97 98 97 97 97 97 97 97 97 94 82 71 65 53 43 35 34 35 34 31 31 32 35
43 39 31 27 30 44 68 75 79 93 92 91 94 96 95 97 97 97 97 97 97 97 97 89 77 67 52 45 40 34 36 36 34 32 32 34 40 44
43 42 32 29 35 59 70 75 84 97 98 97 97 94 96 97 97 97 97 97 97 97 87 73 57 48 43 34 34 35 35 32 31 32 36 41 49 56
49 44 31 30 44 62 67 76 92 97 97 97 97 97 97 97 97 97 97 97 97 84 66 55 46 36 33 34 34 29 29 33 38 45 56 72 82 85
49 42 33 33 52 60 66 81 96 97 97 97 97 97 97 97 97 97 97 96 75 61 50 40 36 32 28 28 31 38 47 63 80 90 94 94 92 85
49 41 32 38 54 57 71 86 97 97 97 97 97 97 97 97 97 97 89 64 54 46 38 32 25 28 32 44 64 76 83 83 79 72 70 68 72 70
48 40 33 44 55 60 73 92 97 97 97 97 97 97 97 97 94 70 55 47 39 32 24 26 36 55 70 80 81 70 60 50 48 59 80 84 84 83

GFSNE_prec_cthk_003.txt.gz
RH
43 45 48 49 51 57 64 71 81 77 67 62 70 68 70 72 76 78 79 80 85 87 87 89 83 80 78 79 81 80 72 79 84 91 97 93 93 84
46 47 50 53 55 58 65 70 72 78 81 64 66 67 67 67 66 65 67 72 78 85 90 93 92 92 89 87 85 87 84 78 86 94 97 96 95 87
41 45 48 54 56 60 64 64 64 67 74 59 62 58 57 57 57 60 62 65 69 74 76 87 94 95 96 92 92 93 87 84 87 92 98 97 96 92
29 34 40 42 42 45 46 46 50 55 65 65 53 55 61 61 58 61 62 65 67 67 71 77 82 93 97 98 95 91 91 90 92 95 95 95 98 98
32 38 42 40 39 39 39 45 46 40 41 52 56 58 60 60 63 67 69 69 66 73 73 71 74 78 92 96 96 94 94 93 93 94 98 99 98 99
36 41 41 41 41 38 43 48 46 41 45 51 54 56 58 57 64 68 66 85 78 70 71 68 72 73 84 91 95 94 95 92 98 99 99 98 97 98
28 29 29 29 29 32 38 33 35 35 36 41 48 56 56 60 63 63 64 59 71 66 65 67 68 72 71 78 88 94 99 95 97 97 98 99 99 98
21 22 24 25 27 30 28 30 38 43 42 44 47 54 54 63 63 64 63 63 55 57 57 57 65 66 72 71 88 94 96 98 99 99 98 98 99 98
23 22 19 18 18 20 19 22 24 29 39 51 60 60 60 64 66 64 65 65 57 55 59 54 58 59 70 83 90 91 98 99 98 98 99 98 99 98
25 23 23 25 27 30 29 30 30 23 24 41 63 67 67 67 71 69 66 64 56 54 60 59 57 64 66 94 93 95 97 98 99 98 98 98 98 98
30 31 33 32 32 36 38 34 29 25 28 44 56 70 75 76 77 79 72 72 61 59 61 68 64 70 72 92 99 98 98 98 98 98 98 98 98 94
43 44 38 37 37 38 40 40 44 46 48 43 53 70 76 85 84 88 84 77 73 66 69 81 93 81 82 99 98 98 98 98 98 97 98 98 93 80
49 44 39 41 44 37 41 42 45 47 41 50 66 73 84 87 86 84 85 83 79 80 79 97 98 98 98 98 98 98 98 97 97 97 97 89 78 72
50 48 48 49 43 38 34 34 38 41 48 65 78 84 83 81 82 84 86 85 83 80 88 91 96 98 98 98 98 98 97 97 97 97 86 77 74 69
50 50 49 46 45 33 28 35 38 44 63 85 87 87 87 88 89 91 92 85 88 94 97 98 98 98 98 98 97 97 97 97 93 76 71 64 56 50
54 48 45 44 43 33 27 30 39 59 84 85 86 91 95 91 93 92 89 95 97 97 97 97 98 98 98 98 97 97 93 77 71 62 59 51 46 39
57 48 43 46 42 30 28 31 49 72 81 86 95 95 94 93 92 96 97 97 97 97 97 97 97 96 89 85 80 76 67 58 54 46 38 36 32 32
56 50 47 51 45 32 31 39 62 74 81 95 97 97 94 95 97 97 97 97 97 97 97 97 90 87 82 73 63 56 48 40 37 39 37 37 38 34
58 52 53 53 44 34 37 57 67 77 90 97 97 97 97 97 97 97 97 97 97 97 95 83 73 65 56 51 46 39 39 41 40 41 38 34 35 39
62 57 55 53 43 38 51 61 69 82 97 97 97 97 97 97 97 97 97 97 97 95 80 64 55 48 42 39 41 41 41 39 36 34 37 42 47 54
62 56 55 51 41 46 57 65 76 94 97 97 97 97 97 97 97 97 97 97 87 70 57 49 42 42 44 42 38 35 37 43 51 62 72 82 87 92
59 53 53 47 43 53 60 68 88 97 97 97 97 97 97 97 97 97 91 73 64 54 52 46 41 39 38 43 58 70 79 83 83 79 74 72 69 70
55 54 51 44 47 58 64 76 97 97 97 97 97 97 97 97 84 71 61 54 52 46 40 38 48 67 76 78 74 63 55 51 47 49 59 68 76 79

GFSNE_prec_cthk_006.txt.gz
RH
30 33 34 36 41 49 57 62 70 69 57 44 56 54 59 61 61 62 63 65 73 75 79 84 87 90 97 98 94 93 91 90 90 86 83 84 91 95
24 22 23 25 31 38 39 44 49 61 63 45 44 50 54 58 57 62 62 61 58 58 64 72 81 82 86 95 98 94 94 94 95 93 93 84 87 92
22 24 27 33 39 42 42 45 42 46 59 45 44 40 38 40 46 53 59 65 65 64 64 67 67 79 80 86 93 98 95 96 96 95 97 95 86 85
27 32 36 37 39 40 41 43 45 55 57 52 34 34 36 35 39 46 50 54 57 63 70 75 82 72 80 80 85 87 93 98 98 97 98 98 94 85
39 39 36 34 33 33 32 31 38 47 45 43 32 27 24 24 27 34 39 48 57 60 62 70 89 86 81 81 80 77 84 92 94 94 98 99 96 89
40 37 33 31 30 29 29 30 36 41 42 42 40 34 27 25 31 32 32 40 48 59 62 62 63 86 88 76 79 83 80 85 88 91 92 99 95 96
32 30 29 27 28 30 35 32 35 35 36 38 35 32 31 27 28 31 42 40 48 57 63 59 62 60 77 72 72 76 77 78 81 87 92 96 96 98
25 25 24 25 28 32 33 35 39 43 38 35 41 34 30 27 34 42 52 50 47 59 65 67 72 68 59 58 58 61 70 75 73 74 85 97 98 99
24 23 24 28 35 38 37 41 42 41 38 39 42 39 36 34 58 52 51 60 54 54 68 61 66 63 61 56 56 58 60 64 74 75 77 96 98 99
27 30 36 40 38 44 47 48 48 39 34 40 43 55 56 66 56 56 61 65 61 56 66 63 65 62 58 53 53 54 57 64 73 84 88 97 99 99
31 34 44 43 43 50 57 51 44 36 30 32 42 49 52 48 58 72 75 66 69 69 65 67 60 59 57 54 57 56 58 64 77 97 97 96 99 99
35 42 41 46 49 52 53 54 50 37 34 30 33 37 46 59 68 82 83 86 86 68 67 71 64 63 60 56 64 67 66 70 81 98 98 98 98 98
47 40 39 48 50 50 52 51 49 45 34 34 38 47 62 78 87 88 89 86 82 74 73 72 65 69 73 73 84 81 77 90 95 98 98 98 98 97
47 42 52 59 53 49 47 51 47 38 34 40 50 69 83 89 88 88 88 88 87 80 80 84 76 77 86 91 92 90 90 95 98 98 98 98 97 97
48 57 64 57 50 43 48 47 35 31 37 46 68 83 84 87 90 91 92 89 89 90 89 88 87 84 90 95 97 97 98 97 97 97 97 97 97 96
53 64 60 54 44 47 47 39 30 33 45 67 81 82 87 94 96 92 90 91 91 95 96 96 97 97 96 97 97 97 97 97 97 97 97 96 94 88
56 56 53 51 46 46 46 34 30 36 59 80 87 92 95 94 91 92 92 94 96 96 96 96 96 97 97 97 97 97 97 97 97 96 91 86 80 75
49 51 58 55 50 49 43 34 34 54 80 87 92 96 95 91 92 95 96 97 97 97 97 97 97 96 96 97 97 97 96 81 83 76 70 67 63 58
50 59 61 55 51 50 41 42 56 73 85 96 97 96 95 95 97 97 97 97 97 97 97 97 94 89 76 75 80 68 60 58 59 56 53 47 43 42
57 61 58 54 52 47 45 58 68 83 97 97 97 97 97 98 98 97 97 97 97 97 89 74 68 64 62 59 55 51 47 45 44 43 45 45 43 40
60 61 58 53 50 47 57 65 80 97 97 97 97 97 97 97 97 97 97 97 90 76 64 61 54 53 53 52 50 47 48 48 45 42 40 42 46 49
62 60 54 51 49 54 63 76 96 98 97 98 98 97 98 97 97 95 87 80 72 63 58 55 56 52 49 50 50 53 58 64 71 77 83 88 89 88
62 56 51 48 52 59 74 96 98 98 98 98 97 97 94 85 78 72 66 61 59 57 60 60 72 79 81 81 80 78 72 66 63 60 57 57 58 62

GFSNE_prec_cthk_009.txt.gz
RH
19 19 20 21 27 33 38 53 57 57 40 27 36 39 48 47 46 48 51 52 60 65 70 68 64 65 69 81 84 87 88 88 98 99 96 96 95 92
21 22 25 30 33 36 39 44 52 60 57 39 35 44 48 42 37 36 34 35 37 40 43 51 64 69 67 70 75 82 82 86 92 92 98 96 98 95
19 22 26 28 27 27 33 39 40 42 45 34 41 43 43 35 34 33 27 22 25 31 36 39 46 52 72 72 69 72 80 87 85 84 96 98 98 99
17 20 21 20 21 24 28 34 38 46 48 54 49 41 39 38 37 33 27 28 22 17 21 32 39 49 55 70 79 80 78 81 85 89 92 92 98 97
16 19 18 19 19 21 23 27 35 39 46 47 47 42 42 43 38 36 32 24 24 24 28 27 32 36 43 60 74 81 89 84 81 85 88 92 94 96
18 19 20 21 21 24 30 33 40 42 40 43 43 37 35 32 31 27 23 22 24 30 32 40 28 31 37 49 67 75 82 93 85 84 84 87 91 90
20 20 21 23 26 34 41 41 42 41 42 42 43 45 40 32 32 34 35 31 31 43 44 35 36 37 41 48 62 72 76 87 88 84 81 79 80 83
21 21 24 27 32 37 41 43 45 54 54 58 51 49 43 40 41 46 50 53 55 44 46 37 46 43 41 46 55 66 75 71 78 78 75 73 69 70
27 29 28 34 38 42 39 46 53 47 45 53 55 53 47 37 49 53 63 64 65 42 51 57 56 55 56 53 61 67 66 69 60 60 60 62 69 64
32 32 36 38 44 45 50 56 46 37 37 43 49 47 48 43 46 51 52 51 48 63 74 64 66 56 54 59 62 67 67 62 63 60 57 58 60 66
33 38 44 43 45 52 60 52 43 38 36 45 45 44 40 40 51 54 56 65 65 73 78 76 76 74 66 60 61 66 63 62 63 60 56 60 63 74
39 41 43 45 50 62 64 59 48 39 44 41 31 27 38 46 58 68 83 86 84 75 86 87 78 76 68 63 64 65 63 62 61 63 65 61 72 82
43 43 42 46 59 61 61 55 50 53 47 32 27 36 44 56 75 88 94 96 89 86 89 87 83 80 73 64 66 71 70 69 73 75 76 69 75 96
49 47 49 55 52 52 53 54 51 51 37 32 38 46 64 86 90 94 95 90 85 80 82 81 73 76 73 73 70 71 75 74 77 78 78 79 82 96
50 53 51 45 47 50 53 52 50 43 36 39 53 77 89 90 90 93 93 92 88 87 89 87 82 82 81 79 77 80 81 80 83 81 84 81 92 97
53 51 47 47 51 55 50 49 46 39 45 61 78 89 91 94 95 94 90 92 95 94 97 95 92 91 86 83 82 88 94 97 92 88 89 94 97 97
55 51 49 52 53 51 49 47 39 44 65 81 90 95 96 95 94 92 92 93 97 97 97 97 97 97 92 91 93 96 97 97 97 96 96 96 97 97
56 56 54 58 58 53 47 40 53 66 84 96 98 98 97 95 93 95 97 97 97 97 97 98 97 97 96 97 96 97 97 97 97 97 97 97 97 97
60 58 60 60 56 51 49 60 69 87 98 98 98 98 97 95 98 98 97 97 97 97 97 97 95 90 97 97 97 97 97 97 97 97 97 97 96 93
64 63 61 57 52 52 61 70 86 98 98 98 98 97 97 98 98 97 97 97 97 96 85 80 78 77 74 84 83 80 76 81 86 77 74 72 70 68
63 62 58 52 52 62 67 88 98 98 98 98 98 98 98 98 98 97 97 92 86 78 72 65 65 65 63 60 58 60 59 63 62 59 60 60 59 59
62 58 52 52 61 64 87 98 98 98 98 98 98 98 96 94 91 88 83 76 68 62 62 66 66 64 62 60 59 60 61 60 58 57 57 56 54 51
59 53 52 60 62 85 98 98 98 98 98 98 95 82 74 68 64 63 64 67 74 77 78 83 87 89 88 87 84 80 78 80 82 83 86 87 88 89

GFSNE_prec_cthk_012.txt.gz
RH
15 15 15 15 17 22 25 26 28 32 25 13 19 20 26 31 36 55 58 48 41 37 35 40 46 54 62 68 76 73 69 70 75 81 84 94 91 94
14 14 15 16 23 23 22 21 24 34 36 20 16 20 24 31 42 48 45 44 43 51 36 29 36 35 33 39 46 55 68 65 67 70 77 84 85 90
15 15 17 21 25 23 23 23 26 34 40 27 34 22 24 27 29 37 41 50 45 41 43 46 35 29 27 32 38 43 51 59 69 69 70 73 85 88
16 17 20 22 23 24 26 30 34 37 45 48 37 38 36 37 40 40 37 43 43 42 39 39 37 32 31 28 32 35 36 47 63 66 76 71 75 79
19 22 24 26 26 27 30 34 37 41 49 49 43 43 42 39 42 41 42 36 39 46 43 38 40 43 41 42 30 21 26 33 45 65 70 74 80 81
24 27 28 28 29 28 33 38 42 50 45 47 49 49 44 37 38 36 33 37 40 39 40 48 48 49 48 42 37 32 30 30 35 53 72 76 80 83
29 28 29 30 29 34 40 41 46 45 48 55 56 51 40 35 38 41 48 34 33 41 47 46 50 50 48 39 34 38 39 36 37 45 61 79 77 83
30 29 30 32 34 39 43 46 46 55 57 64 59 51 42 45 44 45 47 46 42 27 58 51 48 42 35 37 40 43 43 42 38 41 55 65 80 87
33 32 30 34 41 43 43 44 53 57 61 66 67 55 44 48 52 48 46 49 42 39 49 42 43 47 50 51 51 50 51 47 44 41 48 60 73 85
36 38 39 39 45 45 45 48 56 52 57 59 59 56 56 55 49 46 46 48 51 56 70 65 79 71 63 71 64 68 60 55 49 43 48 63 66 74
34 40 45 46 48 49 60 58 55 49 48 55 57 57 48 37 41 50 52 64 80 90 98 93 84 76 84 75 67 78 71 62 53 47 50 58 62 66
36 44 47 50 52 55 62 59 53 47 54 50 46 38 33 38 48 60 75 86 92 96 97 94 89 86 82 84 78 78 75 68 60 52 56 56 58 60
43 43 49 54 56 56 57 60 56 56 55 50 39 35 40 52 69 87 93 95 92 96 97 97 96 96 88 90 84 80 77 75 66 60 71 69 67 71
47 48 54 56 56 58 58 57 58 59 51 44 45 54 67 75 88 95 96 96 96 96 95 92 87 90 89 85 86 83 82 77 71 76 78 72 74 74
51 55 57 57 57 57 59 60 56 53 50 59 68 75 87 94 95 95 95 94 95 94 98 97 90 87 84 84 85 85 80 78 77 81 79 82 80 80
56 57 54 59 59 60 57 55 53 60 70 76 84 94 97 97 97 97 95 95 97 98 98 98 97 95 92 88 87 85 81 82 83 85 84 86 89 83
58 53 57 59 58 57 54 55 60 70 78 92 98 97 97 96 94 96 97 98 98 97 97 97 97 97 97 95 87 87 87 87 87 88 88 88 89 86
57 57 61 60 57 53 57 59 69 87 98 98 98 98 97 98 98 98 98 98 97 97 97 97 97 98 95 93 90 86 88 90 90 92 94 90 94 92
57 62 61 58 54 60 65 75 93 98 98 98 98 98 98 98 98 98 98 98 98 98 97 97 92 97 97 95 96 97 98 98 98 98 97 94 95 97
62 63 59 54 58 65 76 96 98 98 98 98 98 98 98 98 98 98 98 98 97 88 82 83 88 96 97 97 97 97 98 98 98 97 97 97 97 97
64 61 55 58 64 77 98 98 98 98 98 98 98 97 95 94 93 93 90 87 83 75 74 77 78 74 75 85 96 97 97 98 98 97 97 97 97 97
64 56 57 64 78 98 98 98 98 98 98 96 88 82 81 79 76 72 74 76 80 81 78 80 76 75 70 69 69 69 73 76 73 76 72 70 70 70
58 58 64 79 98 98 98 98 98 96 89 88 87 90 95 96 94 93 96 98 98 97 96 96 95 85 75 70 68 66 65 67 69 70 71 70 69 69

GFSNE_prec_cthk_015.txt.gz
RH
15 14 14 14 15 17 18 25 28 24 19 14 17 15 20 23 29 30 29 26 30 31 25 29 41 51 50 40 36 51 60 60 72 77 80 81 81 90
15 15 15 17 19 21 22 26 28 31 31 21 19 18 22 34 35 38 39 36 32 36 35 34 38 41 49 50 52 46 43 51 68 73 76 81 84 83
16 17 20 21 23 23 25 26 31 36 42 26 29 31 31 32 32 39 40 44 37 34 34 36 35 36 42 48 51 38 31 46 52 58 56 63 77 79
17 20 23 24 26 28 29 31 36 35 38 44 35 38 34 33 39 44 42 37 33 28 32 34 43 49 35 42 47 55 44 40 45 39 40 43 55 66
19 24 25 29 30 31 34 36 36 39 45 51 45 42 44 47 46 46 43 32 26 30 41 42 37 37 41 37 53 51 56 48 46 42 42 41 42 53
21 27 31 32 35 36 37 41 44 43 44 52 51 51 55 45 56 56 42 35 30 35 38 33 36 36 47 55 56 63 61 57 46 40 44 45 42 46
26 32 33 36 39 43 45 46 47 47 49 49 52 55 53 45 48 49 49 38 33 46 40 33 40 41 52 55 50 56 55 49 44 39 37 36 37 43
32 33 35 37 41 43 44 45 53 58 59 60 65 61 53 49 50 53 51 52 39 35 41 37 52 47 44 50 54 56 58 53 47 39 35 34 35 34
34 37 39 39 43 42 44 47 54 59 63 66 63 60 54 54 58 53 51 40 36 36 54 51 64 64 71 64 59 57 62 58 52 41 39 34 34 35
38 46 45 43 44 48 51 51 60 56 56 61 63 57 60 61 59 51 41 42 47 55 73 87 94 96 87 82 71 67 59 58 58 53 47 43 42 37
44 47 50 50 47 52 60 59 52 50 54 57 58 61 62 57 47 44 48 61 73 85 92 95 95 92 88 80 73 70 71 64 56 52 44 40 38 39
44 48 49 49 50 60 62 59 57 55 56 55 52 47 44 42 49 62 74 82 88 85 92 96 96 97 92 86 85 81 71 75 65 58 47 39 36 37
50 47 46 48 58 59 60 61 60 61 58 51 47 49 57 65 76 84 91 94 90 87 91 91 94 97 99 95 95 77 81 87 71 70 64 53 47 42
51 48 46 52 56 57 62 60 60 59 52 58 67 73 80 89 94 96 96 95 97 95 94 97 92 95 94 93 96 89 76 80 79 82 77 67 64 67
50 49 51 54 54 58 57 60 58 58 70 74 82 91 97 96 97 96 95 95 95 95 96 98 97 90 87 94 87 89 87 87 83 80 76 76 84 76
48 52 51 55 58 58 56 54 59 73 81 90 96 97 97 96 96 98 98 98 98 96 98 98 98 95 89 86 85 87 88 88 84 84 90 92 86 84
53 55 55 57 58 55 52 58 71 86 97 98 98 97 98 98 98 98 98 98 98 98 97 98 97 96 95 90 86 84 84 88 89 89 91 92 94 88
59 59 59 62 58 53 59 75 95 98 98 98 98 98 98 98 98 98 98 98 98 98 98 97 97 97 97 97 90 88 87 88 88 92 96 90 94 95
61 62 64 60 53 61 83 98 98 98 98 98 98 98 98 98 98 98 98 98 98 96 93 96 98 98 98 97 92 94 93 95 92 96 91 86 96 98
65 67 62 54 64 87 98 98 98 98 98 98 98 97 94 92 91 90 90 88 89 85 90 92 95 98 98 97 97 96 96 98 98 96 92 94 97 98
68 63 55 66 90 98 98 98 98 98 98 98 96 96 97 98 97 94 92 94 94 92 88 90 88 92 98 98 97 97 97 98 98 97 97 97 97 96
64 55 67 91 98 98 98 98 98 98 96 91 89 89 90 94 98 97 97 97 97 97 93 87 83 82 86 97 97 97 97 97 97 98 97 97 97 97
57 70 90 98 98 98 98 97 94 81 73 71 66 64 66 72 76 82 85 90 93 95 97 97 89 80 74 74 85 95 95 94 93 91 93 95 91 88

GFSNE_prec_cthk_018.txt.gz
RH
20 19 18 17 17 19 20 22 27 26 23 18 20 18 22 22 29 41 35 31 34 34 34 35 44 48 46 48 49 38 38 47 46 52 51 51 71 88
21 18 17 17 18 18 22 25 28 33 30 21 23 23 21 26 30 37 38 36 32 36 41 42 43 39 39 41 48 37 36 40 49 52 51 46 56 73
19 17 17 16 18 22 25 29 32 37 43 27 26 26 27 28 25 33 39 45 42 45 48 45 40 35 35 40 42 46 50 43 46 53 56 57 57 61
17 15 17 19 21 26 31 32 36 39 42 42 34 37 37 34 35 36 41 44 47 46 52 48 37 38 48 44 38 34 30 38 42 61 63 62 59 61
17 18 19 23 28 32 34 37 40 44 47 53 45 40 40 42 41 41 45 41 40 43 39 41 47 48 44 41 41 41 38 48 56 59 66 65 61 52
19 20 25 31 34 36 41 45 49 52 50 52 54 54 51 56 62 60 47 40 36 42 42 45 47 36 38 43 41 40 45 56 59 56 63 64 60 45
21 25 30 35 39 46 49 50 52 52 58 57 59 58 61 57 57 55 49 40 41 46 46 31 29 31 33 42 46 44 41 50 60 60 70 70 60 45
25 29 35 39 41 47 49 50 56 60 58 62 63 61 54 56 55 56 55 54 44 43 36 32 43 41 48 55 61 60 63 58 57 57 65 65 57 45
32 35 38 41 44 45 44 51 57 57 62 65 63 60 61 63 61 57 56 51 43 42 50 52 64 74 84 80 87 87 79 68 57 56 56 58 53 49
37 41 44 44 47 52 54 56 56 53 53 61 64 66 66 63 61 57 55 55 63 67 75 80 87 88 90 94 98 97 87 82 72 60 55 61 53 50
42 48 52 50 51 55 58 57 54 53 55 59 63 62 56 56 63 66 71 75 73 82 89 85 90 90 93 95 94 90 88 82 73 62 56 59 52 45
44 49 49 51 49 57 59 58 58 56 58 56 48 48 57 68 81 89 91 92 90 82 90 89 85 91 89 94 97 95 93 86 77 67 57 54 50 42
49 45 44 48 56 59 59 62 61 61 56 55 61 70 86 95 98 98 97 97 94 90 89 92 92 93 93 95 95 92 90 89 86 80 69 61 52 45
49 44 44 54 57 59 62 62 60 58 62 72 86 95 96 96 96 97 98 97 98 95 95 97 93 92 90 94 97 88 92 95 82 90 86 74 57 49
48 50 56 58 59 58 59 57 59 68 83 94 96 95 98 98 98 97 96 98 98 97 97 98 97 92 89 92 96 90 89 91 97 95 86 85 65 57
50 56 57 58 58 60 53 55 72 94 99 99 98 98 98 98 98 98 98 98 97 97 98 97 97 96 87 85 92 94 92 90 91 88 82 76 83 66
59 58 57 58 58 52 57 83 98 99 98 98 98 98 98 98 97 98 98 98 98 98 97 97 96 93 89 86 84 89 89 89 87 86 88 85 84 86
61 61 65 62 54 65 94 97 98 99 99 99 98 98 98 98 97 97 96 94 97 97 97 98 95 92 89 86 85 86 89 89 92 97 98 98 96 97
63 67 62 56 74 98 99 99 98 98 98 98 98 98 98 98 98 97 98 98 98 98 98 97 98 96 95 89 86 88 89 91 98 98 98 98 98 98
67 63 59 80 98 99 99 98 98 98 98 97 95 95 96 98 97 98 98 98 98 98 98 97 97 98 90 89 88 88 88 90 98 97 98 97 97 98
63 62 81 98 98 99 98 98 98 90 83 80 78 78 77 84 93 98 98 98 97 97 95 94 91 97 97 96 95 94 92 90 91 95 95 93 97 97
64 81 94 98 99 99 98 94 80 74 75 74 68 65 67 73 79 86 91 97 97 97 97 87 87 95 98 98 97 98 98 98 98 95 93 92 96 96
81 91 97 99 99 98 90 77 76 75 74 73 72 75 74 72 71 70 74 79 82 88 93 97 85 81 94 97 98 97 97 97 98 96 93 91 92 94

GFSNE_prec_cthk_021.txt.gz
RH
23 23 22 20 16 16 16 18 24 24 19 18 21 20 23 25 27 30 30 27 26 31 38 38 45 49 50 48 46 47 47 49 47 49 48 46 47 42
22 20 16 13 12 14 18 21 24 29 30 21 21 24 24 27 28 32 34 34 32 37 44 43 51 51 50 51 49 51 44 46 47 49 48 51 50 44
16 14 13 13 14 17 21 26 30 34 36 22 26 27 27 27 25 31 39 43 48 47 52 57 48 42 48 44 42 45 51 50 54 54 54 61 63 52
15 16 16 16 18 22 25 30 33 35 45 44 31 33 33 39 36 36 41 45 52 53 58 54 52 47 41 46 47 52 50 46 48 49 50 48 47 56
19 19 18 19 22 26 31 34 38 46 49 50 43 39 47 48 46 49 45 46 47 53 52 50 49 46 50 51 49 45 45 48 49 45 46 48 58 62
20 20 21 23 27 34 36 43 48 47 45 47 56 55 53 51 52 49 41 46 51 49 50 52 53 53 44 37 35 33 38 39 43 43 42 49 58 60
22 24 25 29 32 38 46 43 47 49 52 58 57 57 50 46 52 50 55 54 46 53 50 41 39 35 33 36 38 39 44 48 51 51 48 48 57 61
27 27 29 32 35 38 42 50 52 57 57 60 59 56 52 55 53 56 57 59 51 55 54 49 59 54 56 62 72 76 74 64 57 54 57 60 56 52
31 32 34 35 40 42 40 48 48 53 60 62 60 59 60 58 57 63 65 69 73 72 78 72 78 76 83 84 92 94 94 92 88 87 72 52 49 44
32 36 38 38 42 48 47 49 54 56 56 60 64 62 62 63 68 71 77 83 88 90 87 71 81 79 81 86 88 97 98 97 95 97 92 82 65 48
35 37 43 43 44 46 55 58 56 54 55 60 62 61 64 75 92 93 93 93 88 90 90 85 76 75 80 81 86 92 96 98 98 92 86 81 62 48
32 34 37 44 48 59 62 61 58 56 59 56 56 73 91 94 98 99 97 95 95 90 87 90 86 86 79 84 84 88 93 95 88 83 79 68 58 45
38 36 36 46 58 60 62 62 62 60 60 75 91 94 95 97 98 98 98 98 95 95 94 98 94 92 91 82 83 90 90 94 95 89 85 66 52 42
44 42 49 58 59 60 60 59 60 70 88 95 96 97 98 97 98 98 98 99 99 99 98 99 98 98 90 88 88 86 94 97 98 98 93 69 52 48
48 54 56 58 59 56 53 62 82 95 96 96 98 98 99 98 98 97 98 98 96 96 98 99 98 98 89 90 92 89 91 97 98 98 98 88 60 54
52 52 56 60 58 52 66 90 98 98 97 98 98 97 98 97 98 98 98 97 97 96 97 98 98 97 88 89 92 91 97 97 98 95 90 82 72 58
55 53 56 54 50 76 95 97 98 99 98 99 98 97 98 98 98 98 98 97 98 97 96 95 94 93 89 87 91 97 94 96 97 91 98 90 79 65
54 58 56 58 84 96 97 97 97 98 98 97 96 93 92 97 98 98 98 98 97 98 97 98 93 88 88 90 90 91 97 98 95 95 92 97 96 84
57 57 65 84 97 97 97 98 98 94 88 85 82 81 80 85 93 98 97 98 98 98 98 96 98 92 89 89 89 90 98 98 98 98 97 96 95 88
58 66 82 95 98 98 98 96 87 81 80 80 78 76 74 80 85 95 98 97 98 98 96 97 94 90 89 88 86 89 97 97 97 98 98 98 97 96
65 81 92 97 98 98 95 81 77 76 74 74 73 76 74 74 76 83 87 97 98 98 92 94 97 93 90 88 89 88 96 97 97 97 97 98 97 98
81 90 94 97 97 89 81 80 82 84 76 72 74 79 81 80 76 77 82 83 89 97 96 87 97 98 98 92 92 91 92 95 98 97 97 97 97 97
89 92 95 91 86 81 82 83 84 84 76 73 75 80 83 80 78 77 77 77 83 78 92 91 85 98 98 97 97 96 92 91 96 95 95 96 97 97

GFSNE_prec_cthk_024.txt.gz
RH
24 22 20 17 15 13 13 15 20 20 17 17 20 20 23 26 26 29 29 33 37 37 39 42 42 41 40 44 50 51 51 51 53 51 48 50 49 49
22 19 16 15 14 13 15 17 20 24 25 18 19 23 27 29 30 35 41 44 37 38 43 44 45 47 55 56 55 53 53 51 50 48 48 48 45 49
19 17 17 17 16 16 16 19 22 28 33 21 24 25 27 27 31 40 47 50 49 45 44 45 45 46 52 54 54 53 53 51 50 50 52 52 52 60
18 18 18 18 18 18 20 24 28 31 38 38 28 29 30 31 37 40 42 43 48 40 43 49 53 49 49 52 51 50 51 50 55 54 54 52 53 53
19 20 20 21 21 22 26 29 34 37 40 45 38 35 38 41 41 43 37 34 38 43 48 49 52 52 52 53 53 54 58 53 48 47 46 48 50 50
21 22 23 25 26 29 34 36 43 42 43 46 48 46 46 52 51 45 37 41 43 47 47 45 46 46 43 45 41 38 37 39 40 41 42 42 42 43
22 24 27 29 31 36 42 45 45 45 48 53 46 54 56 50 49 48 50 46 51 59 52 58 59 61 62 60 50 43 43 47 48 46 46 50 52 53
24 27 28 29 32 35 37 43 45 53 51 58 61 56 52 55 54 57 54 60 58 76 84 82 85 77 76 70 67 75 75 77 82 85 83 75 55 51
27 28 29 32 34 33 35 44 44 54 63 62 57 56 58 58 60 67 78 86 85 83 91 81 85 82 71 67 75 75 80 86 89 97 95 91 83 67
27 30 34 33 34 41 46 50 55 53 52 55 60 59 63 74 91 93 91 89 89 87 86 79 80 77 76 67 68 70 77 87 96 98 98 98 94 87
29 34 38 36 37 48 58 56 53 50 51 55 58 76 94 97 98 94 92 94 90 89 86 88 85 83 81 77 71 70 80 91 93 95 90 90 95 94
31 33 35 41 49 56 58 59 54 49 54 72 90 91 92 95 99 98 97 95 94 90 89 96 93 93 89 82 80 81 87 88 95 98 97 92 87 88
34 32 36 46 55 57 60 55 54 71 87 90 89 91 95 96 97 98 99 98 94 93 94 98 95 97 94 85 80 84 87 94 97 98 98 97 86 79
40 39 44 51 55 56 50 56 85 94 92 91 94 96 96 96 97 98 98 98 98 96 97 99 97 98 89 88 87 84 91 97 97 98 94 87 74 67
41 46 48 51 52 44 64 90 93 93 94 94 96 96 97 97 97 97 97 98 97 97 98 98 98 97 90 94 91 90 90 91 98 98 95 70 76 51
43 46 48 50 47 71 88 90 93 96 96 96 93 89 87 87 94 98 97 97 96 96 97 96 98 93 92 94 94 89 92 93 93 97 86 72 66 66
46 46 47 49 69 89 91 93 95 96 91 87 86 82 79 77 86 97 98 97 98 97 96 93 90 89 91 93 93 97 95 96 96 91 91 75 69 68
45 48 53 72 89 92 94 95 94 86 82 82 82 80 76 78 83 95 98 98 97 97 97 97 89 87 89 95 97 95 97 98 98 98 93 89 69 66
48 54 73 86 92 93 95 92 78 76 78 75 73 75 77 78 79 86 96 98 97 97 98 98 95 88 87 97 97 97 97 96 98 98 97 91 78 67
53 73 85 91 93 93 86 78 80 84 83 73 74 79 79 77 78 81 86 95 97 97 96 94 93 90 87 94 98 97 97 98 98 98 97 98 87 73
71 83 87 92 88 84 81 83 84 84 81 73 76 82 83 83 83 82 85 88 93 97 95 97 96 92 89 90 97 98 98 97 98 95 97 97 98 87
81 83 84 84 82 82 83 83 86 88 83 73 77 82 82 82 81 78 77 82 88 90 93 95 97 97 92 89 96 98 98 97 97 97 97 98 97 97
79 77 79 80 81 81 81 86 87 91 85 77 79 81 83 83 83 78 77 78 78 85 84 89 97 97 98 96 93 95 95 94 93 95 96 97 97 97

GFSNE_prec_cthk_027.txt.gz
RH
28 29 28 23 20 18 17 16 19 21 18 18 19 20 23 24 25 26 27 28 33 37 42 42 42 42 43 43 41 42 42 44 52 51 52 50 51 52
30 27 22 19 18 17 17 18 19 22 24 18 19 22 24 27 27 31 32 37 38 41 45 46 43 43 42 41 42 43 44 53 55 57 57 57 59 53
26 22 19 18 18 19 19 20 22 26 29 18 20 19 21 22 27 33 38 44 47 47 45 42 44 44 44 48 54 54 55 50 56 56 56 56 56 54
21 20 19 19 21 21 22 24 26 27 35 34 25 20 23 24 27 34 41 49 54 48 39 44 48 48 49 50 49 49 50 51 51 50 51 56 56 56
20 20 21 22 23 24 26 27 30 33 36 39 33 28 31 36 40 44 46 46 46 46 47 49 50 51 50 51 53 54 51 51 55 58 59 58 57 56
21 23 23 24 26 27 31 33 35 35 35 39 39 41 47 52 51 49 43 46 48 46 47 50 54 61 63 65 64 62 61 59 56 43 39 44 44 46
23 23 23 24 26 30 34 33 33 40 43 45 48 57 55 52 50 47 49 50 64 80 82 79 79 79 80 78 74 71 67 63 58 54 50 46 47 45
22 21 22 23 26 30 30 34 44 47 54 61 56 54 51 48 52 66 85 88 79 87 85 77 84 79 78 76 74 77 73 67 70 72 76 79 79 79
23 23 24 27 29 29 30 39 46 52 61 63 52 49 56 73 90 89 91 92 90 91 92 83 84 79 79 79 77 74 69 65 68 70 74 77 87 92
25 27 30 29 32 37 43 46 45 48 49 48 56 73 91 94 95 94 91 90 91 91 91 86 88 87 88 87 79 74 70 67 70 75 81 89 93 91
26 32 33 35 37 46 48 48 49 42 45 70 91 94 93 95 97 91 91 93 87 89 91 92 89 88 89 86 81 74 77 81 83 88 89 92 97 99
30 30 34 39 41 49 52 51 45 56 83 86 88 89 92 94 97 97 96 93 91 85 92 94 92 93 90 83 77 82 86 86 92 97 97 97 98 98
30 31 34 39 43 47 51 48 73 86 87 88 88 89 92 93 94 96 99 97 91 91 93 95 93 96 95 86 84 87 88 91 95 97 98 98 96 98
33 34 37 42 45 46 48 77 89 89 88 90 89 85 82 80 81 85 94 98 97 96 95 93 93 93 91 93 91 89 90 92 95 97 94 85 89 98
37 40 40 41 42 46 75 87 88 89 91 86 81 80 81 79 78 82 92 97 96 95 96 90 90 89 93 95 93 90 91 90 97 98 92 79 77 77
40 38 39 42 50 74 84 87 90 91 84 80 78 77 77 76 76 82 93 94 94 93 96 90 87 89 92 97 97 96 97 93 94 92 85 86 81 61
41 37 40 49 72 84 88 90 90 82 76 79 73 69 72 74 74 78 91 95 95 95 94 87 87 94 98 98 97 98 97 96 98 93 83 82 79 57
37 39 51 72 83 88 90 89 78 76 81 80 70 71 75 75 72 72 85 95 96 96 96 93 87 94 95 96 96 95 98 95 97 97 83 81 74 71
38 51 71 82 89 89 84 78 77 80 82 78 71 74 79 78 78 78 81 90 96 96 97 95 89 95 97 97 98 98 98 97 97 97 94 76 75 67
47 69 81 86 84 81 79 79 79 83 84 77 72 77 79 77 77 78 78 84 94 97 96 94 89 89 96 95 97 98 97 98 98 96 84 80 76 76
65 79 79 81 80 81 82 81 84 85 86 80 76 79 79 79 80 80 77 78 84 96 96 96 94 89 93 96 96 97 98 98 98 97 96 89 66 72
74 74 76 81 85 86 86 87 90 87 91 82 81 82 81 80 79 78 76 73 77 86 94 94 98 93 90 94 96 97 97 97 97 98 97 89 82 76
71 74 82 85 84 84 85 85 87 89 94 88 86 86 83 82 83 85 79 75 74 77 85 91 96 97 93 91 94 93 96 95 96 97 97 94 98 84

GFSNE_prec_cthk_030.txt.gz
RH
32 30 30 31 29 25 23 22 23 22 18 18 18 18 18 20 21 24 25 26 32 37 37 33 33 38 40 40 41 41 42 46 44 43 43 43 46 53
31 32 32 29 25 23 23 23 24 24 23 18 18 19 21 20 21 24 27 30 31 33 38 43 45 45 42 40 40 40 42 46 44 45 52 53 54 54
33 32 27 24 22 22 23 25 25 27 26 16 19 17 17 23 23 29 35 40 42 40 39 47 49 48 46 47 49 49 52 54 54 54 54 54 53 58
32 27 23 22 21 22 24 25 26 26 31 27 17 19 22 23 29 38 42 45 45 40 44 46 51 51 50 51 52 52 51 53 50 49 52 50 55 56
26 23 21 21 22 23 24 26 27 29 31 32 28 28 29 40 41 42 40 38 39 45 59 67 74 73 73 70 64 61 59 59 59 60 61 59 62 57
21 20 20 22 22 24 25 29 32 31 30 34 40 44 48 45 44 37 44 61 73 80 78 78 82 81 80 81 79 77 73 72 71 71 69 60 58 57
20 21 21 21 22 26 30 32 33 34 40 45 47 48 44 41 49 66 75 77 81 85 81 83 84 82 80 78 74 73 73 72 75 76 72 63 58 54
23 22 22 22 23 25 27 33 38 46 46 49 46 42 46 68 75 80 83 82 77 88 86 81 85 82 82 83 84 85 80 79 73 72 71 67 69 72
23 22 22 24 23 24 26 33 44 47 50 48 44 62 76 81 83 83 83 85 87 87 87 76 84 82 84 84 84 89 87 82 76 71 67 68 68 68
23 23 24 24 27 33 35 43 39 41 40 51 78 80 84 86 88 88 85 85 85 87 89 83 85 83 85 85 85 86 84 78 75 74 74 73 72 73
23 25 27 31 33 38 45 41 41 38 63 81 84 87 85 86 87 84 81 81 79 86 88 90 83 86 88 84 84 81 84 84 86 84 84 88 93 96
26 27 29 35 37 40 42 44 44 66 79 82 81 82 80 79 82 84 82 82 84 84 89 88 83 86 88 82 88 87 88 86 89 90 94 97 96 94
28 27 30 35 40 40 45 46 72 81 81 81 78 75 74 74 76 79 82 87 89 89 91 89 83 88 92 91 88 89 88 88 92 94 96 96 97 96
31 31 35 39 37 40 45 73 83 84 83 79 74 72 69 67 73 76 78 90 95 92 92 89 85 86 91 92 90 88 93 96 96 96 94 93 96 94
33 37 36 35 36 41 70 82 84 84 80 74 71 69 62 64 68 69 72 88 94 93 94 86 88 91 94 92 93 94 95 92 95 90 90 91 87 77
35 33 33 34 43 70 81 83 86 84 73 72 72 67 65 70 71 72 66 79 91 90 93 85 90 91 93 95 95 97 97 96 89 86 87 88 72 59
37 32 32 41 69 82 87 85 81 74 74 77 76 68 68 73 74 74 75 73 92 93 91 85 89 90 94 96 95 97 96 98 97 87 90 87 69 48
34 33 39 68 79 84 79 78 76 75 77 80 78 71 71 73 73 74 75 76 90 95 95 90 87 86 87 90 94 94 97 98 95 87 87 81 76 60
34 37 65 77 79 77 77 78 78 79 85 85 80 73 75 77 75 75 76 75 82 95 97 93 87 88 91 91 91 98 96 97 90 91 86 76 70 68
38 59 73 74 79 83 84 83 84 87 87 85 81 78 80 78 76 75 74 71 75 90 96 95 88 86 92 93 92 95 97 97 91 91 85 81 73 65
54 68 71 79 83 82 82 84 82 82 84 89 85 82 83 80 80 83 79 74 72 81 94 93 94 88 90 92 93 95 97 97 94 90 87 79 73 66
63 69 73 78 80 82 81 82 83 84 89 94 88 86 85 81 82 86 84 77 71 75 87 91 93 88 85 90 93 96 97 97 94 95 85 79 77 72
65 69 76 78 78 80 82 83 83 87 94 91 87 85 81 83 86 88 87 81 77 72 79 87 91 94 86 90 91 96 97 97 96 96 91 79 73 72

GFSNE_prec_cthk_033.txt.gz
RH
37 36 33 30 30 28 27 25 27 24 22 21 19 19 20 21 20 22 24 26 29 32 32 32 33 37 40 41 42 49 52 51 50 44 45 48 54 54
37 33 31 31 28 26 25 25 23 23 22 17 16 19 21 22 24 26 27 29 28 33 36 42 44 44 44 44 44 45 45 46 47 52 52 52 51 54
33 33 31 29 25 24 23 21 21 22 21 13 19 19 21 25 27 33 36 36 35 32 36 38 42 47 52 55 56 54 50 48 52 58 57 57 62 62
34 32 28 25 23 21 20 19 19 21 24 21 18 21 25 28 34 36 36 32 36 48 59 64 66 67 68 71 73 73 73 73 68 56 55 58 59 60
32 28 25 22 21 22 21 21 23 26 29 31 25 24 29 35 36 32 34 53 63 64 67 68 72 76 78 78 77 77 76 77 76 76 73 63 55 57
28 25 23 23 23 22 25 29 32 31 31 34 36 38 37 33 34 50 61 66 70 72 71 73 76 78 78 76 74 75 77 77 74 74 76 75 73 69
23 22 23 24 22 26 30 32 32 33 33 40 44 42 37 43 62 67 70 72 74 76 70 73 75 74 74 77 79 79 78 79 84 83 80 75 75 79
23 24 23 22 22 25 27 32 34 36 42 42 43 42 57 68 70 74 76 74 67 73 72 70 78 75 77 75 75 81 82 86 88 88 84 78 74 75
24 23 22 23 23 24 24 32 34 39 42 43 45 65 72 76 78 76 73 73 72 71 73 72 78 76 73 74 81 85 86 85 85 81 75 71 68 63
22 22 23 22 24 29 32 33 34 35 40 48 73 75 80 82 79 76 73 72 68 69 77 78 77 75 75 76 81 82 84 85 85 83 82 82 79 74
22 22 23 26 28 33 35 35 37 38 47 76 79 81 81 77 77 76 72 73 69 70 78 82 80 75 74 77 83 88 91 89 87 85 85 85 87 89
24 24 24 27 32 36 38 38 40 47 76 81 81 78 75 73 73 74 72 70 71 72 82 85 77 73 77 76 79 85 89 91 90 92 94 94 92 90
26 24 25 28 36 38 39 40 51 78 80 80 79 72 71 69 63 68 73 72 63 78 87 90 77 78 82 78 80 88 94 94 93 94 96 94 91 94
28 26 28 35 33 34 36 50 80 82 81 81 72 68 68 63 62 69 73 74 71 75 90 93 80 82 84 85 83 83 90 94 95 97 93 94 94 88
29 29 30 31 29 32 49 79 82 81 78 70 68 71 70 64 65 68 70 72 73 72 93 95 86 84 89 90 88 86 88 91 96 95 92 89 75 66
31 29 29 29 32 50 79 81 77 76 74 72 72 76 73 68 71 70 67 67 69 73 91 95 89 86 89 92 93 89 95 96 95 91 89 83 77 61
33 28 29 31 54 77 79 77 78 79 79 79 83 81 74 70 72 72 73 71 70 70 88 93 90 87 88 89 87 92 95 96 94 93 83 77 69 52
30 29 34 55 69 74 78 81 82 82 83 86 84 83 74 74 76 75 74 71 69 70 87 93 88 81 82 82 89 91 95 95 94 91 86 80 73 63
29 38 53 65 72 78 77 78 79 82 82 82 84 85 80 82 78 77 80 77 72 70 83 95 92 86 85 87 85 97 96 94 90 89 81 73 62 67
39 51 63 69 74 75 76 77 79 81 83 86 93 89 87 85 81 83 84 80 75 70 77 92 93 87 85 89 92 93 97 93 89 88 85 76 71 61
51 60 66 71 72 73 76 78 80 83 89 94 93 90 88 85 85 86 87 83 79 73 76 89 93 89 84 89 90 94 95 96 93 91 80 77 76 63
57 62 67 70 70 72 77 80 84 89 92 91 89 88 87 87 86 87 87 83 78 76 76 86 94 90 85 89 90 94 95 93 92 85 89 81 75 75
59 64 68 69 70 73 80 83 86 87 86 86 87 87 87 88 89 90 85 80 77 77 75 84 95 93 85 87 90 93 95 95 93 86 78 80 79 76

GFSNE_prec_cthk_039.txt.gz
RH
60 54 49 46 42 38 36 33 33 30 27 27 25 24 23 23 22 21 19 19 23 26 28 28 29 30 31 31 33 35 37 41 46 49 48 46 42 47
58 53 49 46 41 36 33 32 30 30 28 26 24 25 26 25 21 23 24 27 25 27 29 31 35 37 40 45 50 53 54 55 57 61 62 61 64 63
55 53 50 44 37 34 31 30 30 28 27 25 26 26 26 24 26 27 28 26 25 28 33 40 45 49 55 57 57 59 60 61 63 66 68 68 69 73
57 53 46 38 33 32 32 30 29 28 30 28 28 25 26 29 30 33 32 30 28 35 44 53 57 59 58 60 61 60 61 62 65 65 65 66 68 68
57 48 39 33 33 32 30 30 30 30 29 28 25 26 29 33 35 34 31 32 39 48 58 60 58 55 61 60 60 60 62 65 67 67 63 62 63 65
48 39 34 34 32 32 31 30 29 28 29 29 28 28 33 37 38 35 34 44 54 64 63 58 59 59 59 56 58 63 67 70 68 65 66 68 68 67
36 35 34 33 31 32 30 28 30 31 30 29 31 35 35 35 35 38 48 59 65 69 63 56 61 58 54 57 63 68 70 72 66 70 72 72 73 76
35 32 32 32 30 28 29 32 32 32 33 36 35 41 36 35 43 53 63 71 68 69 67 48 57 54 55 61 68 72 75 66 69 72 76 78 78 80
33 33 32 27 25 26 29 31 30 32 35 38 40 41 39 48 59 69 77 75 68 64 64 51 53 47 48 58 70 78 66 65 73 79 81 82 84 85
34 30 26 24 26 29 29 29 29 31 33 35 39 43 57 72 80 81 79 68 59 59 64 60 53 48 45 57 70 75 64 72 78 79 81 84 89 91
27 23 22 26 28 29 33 30 31 31 30 37 51 72 80 84 84 78 66 61 57 55 60 61 55 52 48 56 71 73 69 73 75 78 80 88 90 90
21 20 23 29 30 34 36 33 32 30 38 61 73 74 75 76 76 75 70 69 66 57 66 64 61 63 48 64 74 73 69 72 73 77 83 91 94 88
22 23 26 30 32 32 34 34 34 50 65 67 68 71 72 73 73 74 77 77 70 64 67 69 61 63 65 64 76 74 69 72 75 81 90 95 96 92
27 27 28 32 32 33 33 37 52 67 67 70 71 71 72 74 77 79 80 77 74 73 68 71 66 65 63 69 82 76 73 76 80 85 90 93 94 94
29 31 32 32 31 31 42 55 64 66 67 67 68 71 75 76 77 77 78 75 78 76 76 76 73 67 67 76 86 78 74 78 85 89 91 89 86 83
27 26 26 27 36 46 54 60 64 66 68 69 71 72 74 77 80 82 79 80 78 78 82 77 74 70 67 87 92 79 80 83 83 91 89 87 84 77
30 23 26 40 47 54 59 61 64 69 73 75 78 80 83 86 88 87 86 84 82 77 75 75 74 72 72 93 89 79 81 82 91 90 89 87 79 74
24 29 42 47 53 58 59 62 68 75 80 83 85 84 84 84 83 85 86 84 81 79 77 72 70 68 83 91 82 84 83 84 91 90 91 88 79 77
29 44 47 53 57 60 62 66 73 81 86 89 90 91 91 89 86 84 83 81 79 78 76 72 72 77 91 89 77 82 84 90 91 90 89 84 81 79
43 48 52 57 60 63 66 71 77 82 89 92 94 96 95 94 93 91 87 82 77 75 72 72 75 90 97 89 84 79 88 92 90 88 86 82 84 87
47 52 57 59 62 65 69 74 79 83 89 94 96 97 97 95 95 94 89 85 79 75 70 71 81 93 94 88 90 90 88 90 91 85 84 86 84 76
55 57 58 61 63 66 70 75 81 86 91 98 98 98 98 98 95 95 93 86 80 76 72 74 83 94 92 93 94 96 92 88 88 82 83 82 83 77
59 58 60 62 63 66 70 76 81 85 93 99 98 98 98 98 97 97 91 83 78 76 73 80 92 93 95 95 98 97 96 89 85 79 80 83 85 77

GFSNE_prec_cthk_042.txt.gz
RH
63 62 62 58 56 51 46 43 38 34 32 28 28 27 24 22 22 22 20 18 19 18 23 27 28 29 29 33 33 36 38 40 44 48 48 50 51 53
65 64 61 59 54 48 45 38 34 32 29 28 27 25 25 25 22 20 19 19 18 21 24 28 30 33 38 39 40 43 47 51 54 55 56 60 61 65
66 64 63 55 51 47 39 33 30 31 31 28 27 27 26 25 21 21 22 22 24 23 29 33 37 42 44 47 49 52 54 55 57 59 61 63 66 67
68 66 58 55 48 38 31 31 33 31 31 28 26 25 25 22 22 23 24 25 22 24 35 40 46 48 53 56 58 57 58 58 59 60 61 61 63 64
67 61 57 47 36 31 33 33 31 29 25 26 24 24 21 22 25 26 26 25 28 33 41 47 51 56 61 62 61 60 61 59 60 65 67 67 67 63
65 56 45 35 34 35 33 31 28 25 25 25 25 24 27 29 31 32 28 30 34 43 50 55 61 58 59 58 55 56 58 58 63 69 71 67 61 62
52 39 33 35 34 34 33 29 30 30 29 30 29 29 31 32 33 34 38 43 50 61 61 61 61 55 53 53 52 51 56 62 71 75 74 66 67 68
33 32 33 33 31 28 26 28 31 30 30 30 30 32 31 32 39 51 58 60 63 74 66 57 59 51 51 53 52 53 51 59 74 78 69 69 71 71
32 33 33 30 25 23 24 29 28 29 31 33 33 33 34 46 61 63 65 68 67 63 59 49 47 44 50 49 53 51 51 61 74 77 70 71 70 72
32 31 27 24 23 26 29 29 30 29 31 32 34 39 56 65 66 66 65 62 57 56 59 56 51 49 50 50 52 51 53 62 75 75 70 69 70 73
25 22 21 22 25 29 31 30 29 29 28 30 45 62 66 68 70 68 65 63 57 59 66 62 56 52 50 50 53 56 60 65 73 73 68 70 71 75
19 19 20 23 29 31 33 33 32 31 38 52 61 62 63 65 67 69 69 67 66 62 72 65 61 62 49 50 54 59 61 65 75 74 69 70 73 77
23 21 21 23 30 31 32 33 38 51 56 56 57 58 60 63 66 70 74 75 71 70 74 72 66 68 67 54 51 57 67 67 73 73 70 72 77 83
22 22 22 29 31 30 33 42 51 57 54 55 59 62 64 66 69 71 74 79 82 77 76 81 74 73 68 60 53 56 72 72 77 70 70 74 83 86
21 22 23 23 24 33 44 49 53 53 56 61 65 69 73 75 77 77 82 82 86 85 85 82 79 76 73 66 60 62 76 82 79 71 73 81 85 88
21 22 22 22 36 44 46 50 53 56 61 66 72 77 79 81 83 82 80 81 82 85 87 82 81 79 73 70 69 79 88 85 76 76 79 85 88 87
28 21 21 36 42 45 49 52 57 62 68 74 78 83 87 89 92 91 89 84 81 78 76 79 80 77 74 73 83 87 81 75 75 77 83 84 84 85
23 22 37 43 47 50 53 58 63 69 74 79 85 91 94 95 94 94 92 89 83 79 74 71 69 64 67 80 91 83 78 77 78 83 84 80 81 83
21 36 44 49 52 55 58 63 68 74 78 83 89 94 95 95 97 94 92 91 87 79 73 71 69 70 77 85 84 84 83 82 85 83 82 82 79 81
36 46 52 53 55 58 61 67 73 79 82 86 93 96 97 97 96 96 95 91 86 79 75 72 72 81 91 92 84 78 83 86 86 84 80 80 80 80
50 54 54 56 58 60 66 72 78 82 85 89 96 98 98 98 96 97 94 92 84 78 73 71 77 90 94 89 89 89 88 87 87 82 78 75 75 80
57 55 55 57 59 63 69 74 81 85 89 92 95 95 97 98 96 95 92 84 78 75 72 76 87 94 94 95 95 92 91 86 84 80 77 77 78 76
58 56 56 57 60 65 71 76 84 88 91 91 93 93 94 95 96 94 89 83 78 74 80 91 94 94 96 96 96 95 94 86 82 78 74 78 82 90

GFSNE_prec_cthk_048.txt.gz
RH
82 79 75 67 68 66 65 63 60 58 56 58 50 45 37 32 28 26 25 23 20 21 21 22 20 24 28 28 28 33 37 33 32 30 39 39 40 41
76 77 72 69 68 68 67 66 65 61 56 50 44 36 31 29 28 25 23 20 18 16 15 19 19 24 28 28 29 31 35 32 35 35 36 43 45 47
85 80 75 73 75 70 69 70 66 61 52 42 34 31 30 27 23 20 18 16 14 11 13 18 20 26 28 29 31 33 36 39 40 42 45 47 54 55
86 80 78 82 78 76 75 69 63 52 40 34 32 32 29 24 22 18 15 12 12 10 15 20 23 26 29 35 40 45 46 49 50 51 53 54 55 56
85 85 84 85 82 76 68 59 47 36 34 35 32 28 26 22 19 16 16 13 13 14 19 23 29 36 43 46 51 50 48 49 51 51 54 54 56 54
95 92 88 79 70 62 51 39 35 37 35 29 26 26 23 20 19 20 18 16 18 25 33 39 43 45 46 46 44 42 41 41 46 50 54 54 56 54
91 81 73 64 51 41 36 36 36 31 26 25 26 25 24 23 23 20 22 27 34 41 40 43 44 43 45 44 44 43 41 41 44 45 50 51 53 53
73 63 50 39 32 33 34 31 28 26 25 27 28 28 25 24 25 29 37 39 36 39 40 39 42 40 44 45 45 44 46 47 46 45 46 45 49 52
52 41 32 32 33 29 24 22 22 23 25 30 29 26 27 29 36 40 42 42 41 41 44 40 47 43 48 47 50 50 49 51 51 50 49 50 51 52
32 31 34 30 23 21 22 24 24 24 27 26 26 31 37 41 45 47 47 46 45 49 59 47 52 50 52 52 55 56 57 55 54 55 52 51 51 51
33 31 24 21 18 22 23 26 27 24 22 28 35 39 43 47 49 51 53 56 51 53 69 62 60 60 56 55 61 65 65 62 61 57 53 52 50 51
23 20 18 17 21 22 30 29 22 21 31 37 39 43 47 52 58 63 65 65 66 59 75 70 70 73 56 61 66 73 71 70 64 59 56 53 53 53
18 16 16 18 23 24 24 22 23 35 38 40 42 47 53 60 66 72 76 78 77 78 83 83 75 77 73 61 63 70 71 68 64 59 58 55 53 55
19 20 22 23 22 20 18 21 36 40 40 43 48 54 60 65 72 76 83 87 89 88 86 89 81 82 75 67 62 62 65 63 60 58 58 57 56 58
24 24 23 21 17 16 23 35 39 42 45 51 57 62 65 68 72 76 85 88 88 92 91 89 85 83 79 71 62 59 58 56 63 61 61 60 61 67
23 22 21 18 17 26 39 42 44 48 52 59 64 66 67 70 75 79 81 87 85 87 91 88 86 84 78 73 68 60 66 73 74 75 75 78 78 74
23 18 17 18 29 42 45 45 48 53 59 65 67 67 69 71 75 82 87 87 85 82 83 87 85 80 75 73 69 75 84 84 81 79 78 75 73 73
19 17 20 32 45 47 46 48 53 58 65 68 68 69 69 70 72 77 83 83 80 81 76 74 72 68 68 76 85 86 83 78 77 82 84 83 81 79
20 23 35 49 51 49 50 53 57 64 69 69 70 72 72 73 75 75 75 75 72 70 69 71 73 80 80 83 85 90 84 84 89 89 85 84 82 81
24 38 53 53 50 52 54 58 62 68 71 69 73 79 84 86 85 85 84 80 78 78 81 87 93 97 96 94 92 89 92 90 89 87 83 81 78 74
44 57 54 52 53 54 57 60 66 71 71 69 75 83 86 89 92 94 95 96 96 96 95 96 97 98 98 97 94 91 89 88 85 82 81 79 76 77
56 54 52 53 54 55 58 61 70 73 73 71 72 79 86 88 90 92 93 94 95 96 96 96 97 97 98 98 96 93 92 90 86 83 81 80 79 76
52 52 52 54 55 57 59 62 71 72 72 74 71 73 80 85 87 88 91 93 95 96 98 96 96 97 97 97 96 94 94 89 86 84 86 88 91 94

GFSNE_prec_cthk_051.txt.gz
RH
75 73 80 85 72 78 71 70 68 64 63 71 69 67 61 56 49 41 33 29 26 24 22 19 22 24 22 22 26 28 27 28 28 29 28 28 36 37
74 76 83 86 76 75 73 69 68 69 69 68 65 62 55 46 39 31 28 27 24 21 18 19 21 19 22 26 27 28 28 27 28 29 29 32 37 41
73 81 82 81 81 79 82 82 80 78 72 67 58 50 42 35 29 27 25 22 18 15 11 13 18 20 26 28 28 29 30 32 33 34 37 38 42 44
79 91 92 91 82 87 91 89 82 73 63 55 48 40 34 31 30 26 22 18 13 10 9 14 20 22 25 28 33 37 39 40 43 44 46 47 47 47
94 97 92 90 98 92 84 78 69 60 51 43 37 35 33 29 26 22 17 14 12 11 16 21 25 28 35 36 40 41 40 41 41 44 44 47 48 49
89 90 93 96 89 79 71 61 51 43 38 36 35 32 30 24 21 19 17 15 17 24 27 28 29 31 32 33 35 35 35 36 40 41 41 41 47 48
96 87 82 79 73 62 52 44 39 37 36 33 30 28 22 21 21 19 20 25 27 28 27 28 30 31 33 35 36 37 37 38 43 43 43 44 46 45
92 84 76 65 51 43 35 32 34 32 30 29 25 23 22 22 23 27 31 32 31 32 33 32 37 36 39 40 42 43 44 47 48 48 47 46 45 48
72 61 51 46 36 31 31 27 26 24 25 26 25 25 24 28 32 35 37 36 39 40 44 37 45 43 48 49 55 57 56 56 57 54 53 52 52 53
55 44 35 33 31 26 25 26 24 23 24 23 22 25 33 36 39 40 42 42 43 49 61 48 52 51 52 56 66 67 67 65 61 61 59 58 58 57
36 34 31 26 23 22 26 26 25 23 21 21 28 34 36 39 42 44 48 52 50 53 64 67 59 59 59 60 72 79 77 70 66 64 63 62 61 59
27 24 22 21 20 25 29 27 24 21 22 31 34 37 40 45 52 58 60 59 61 56 71 73 68 77 62 63 71 77 78 72 67 65 64 62 61 60
20 19 19 20 25 25 25 23 20 25 33 35 38 42 49 56 60 62 64 67 68 74 84 89 76 80 80 68 69 75 73 69 67 66 65 62 58 56
19 19 21 23 23 21 17 15 26 35 37 39 44 50 56 59 59 61 64 67 71 78 81 87 79 81 79 75 71 69 66 64 61 59 60 58 58 58
19 22 20 19 17 15 17 26 36 40 43 46 52 58 59 58 61 61 62 65 69 79 80 81 80 81 82 77 69 64 60 58 65 63 64 66 68 69
17 18 17 15 16 20 33 41 45 46 50 55 60 60 59 63 66 66 63 62 61 63 73 75 75 75 73 72 68 62 67 73 78 82 83 82 82 80
18 15 16 18 25 38 46 48 49 52 57 61 62 60 65 70 76 79 79 73 68 63 60 66 71 72 74 79 80 81 83 84 82 82 85 85 84 82
16 16 20 29 44 51 49 50 52 57 61 64 63 64 69 75 79 83 85 86 84 83 82 84 86 86 87 86 87 87 86 84 83 88 90 88 87 86
17 20 36 48 49 49 51 53 55 60 64 65 66 65 71 77 81 82 84 86 87 88 90 92 93 95 92 90 88 89 82 86 89 89 89 88 87 85
28 43 47 45 47 50 52 54 57 64 68 69 71 67 70 76 81 82 83 86 88 89 92 95 97 96 95 93 91 90 93 89 89 90 91 91 86 84
42 45 45 45 48 51 53 55 58 66 69 71 74 71 70 73 77 81 82 84 89 92 94 95 97 98 98 98 95 93 92 92 89 88 88 89 87 85
43 45 45 47 50 52 54 56 59 67 70 73 76 77 75 74 75 75 80 82 86 93 94 96 95 96 98 98 97 96 96 94 90 90 90 90 88 81
45 47 50 54 57 58 58 58 62 66 71 74 76 76 76 75 75 74 75 78 84 92 95 95 94 96 98 98 96 95 94 94 93 93 95 98 96 92

GFSNE_prec_cthk_054.txt.gz
RH
90 91 87 84 82 94 80 73 80 77 76 78 78 80 75 72 69 60 53 45 40 35 30 27 27 29 29 27 26 26 28 29 28 29 28 30 34 32
87 88 90 91 88 81 91 77 84 80 77 79 85 82 77 69 64 54 48 40 35 30 27 24 26 28 25 23 24 27 28 28 29 29 29 30 30 33
88 90 91 93 86 78 79 93 93 98 95 90 82 74 68 60 53 43 36 31 29 26 21 18 22 22 21 22 24 30 32 32 34 34 35 36 37 40
88 91 93 89 82 95 95 98 98 89 89 80 72 63 54 46 36 32 32 30 24 19 16 14 19 22 27 29 31 31 32 33 34 35 36 37 39 40
92 94 91 80 94 97 93 91 83 76 69 67 58 50 40 33 33 31 27 22 17 14 18 23 25 25 25 28 30 30 30 30 31 33 34 36 37 40
95 88 84 95 96 96 89 84 78 70 60 50 43 37 36 34 30 27 23 18 19 24 25 26 25 26 27 28 29 29 30 30 32 35 35 35 35 35
84 92 93 98 94 83 74 62 56 50 43 37 37 37 30 27 25 23 23 26 27 26 25 26 27 28 32 34 37 38 38 38 39 42 41 43 45 45
98 97 89 80 72 65 56 46 39 35 38 35 30 29 28 26 25 27 30 30 30 28 28 29 37 37 42 43 46 49 50 50 49 50 49 50 50 50
88 81 72 61 50 43 38 32 29 25 27 29 29 28 27 25 29 31 33 32 33 38 41 34 43 40 44 47 54 58 61 63 60 59 58 58 58 58
60 50 43 38 33 28 24 23 24 25 27 27 25 23 26 34 35 36 36 38 42 46 49 38 42 41 46 51 62 73 78 75 70 68 65 65 66 65
37 33 28 23 21 20 26 25 24 23 21 20 21 28 32 34 36 39 44 48 43 43 47 46 44 45 51 54 67 77 82 80 71 66 66 65 65 65
24 22 20 19 19 23 22 20 19 16 16 18 29 33 36 40 46 50 49 47 51 45 48 51 50 54 46 55 65 73 77 77 70 70 67 63 64 64
18 16 15 15 20 19 20 18 16 20 25 31 35 40 46 51 53 51 52 59 58 56 55 57 52 55 61 57 59 68 72 71 69 65 63 61 59 58
14 14 14 18 15 14 13 14 21 29 34 39 43 50 55 56 53 54 64 68 69 67 63 63 59 59 58 55 56 60 64 65 64 63 64 65 66 65
15 16 14 13 12 14 18 23 31 38 42 46 52 56 57 55 56 63 68 71 72 74 76 75 73 72 74 75 74 72 67 66 71 72 79 84 85 86
13 14 13 13 16 20 31 40 43 43 47 51 56 57 56 55 61 67 69 73 74 75 79 81 84 87 87 87 85 81 84 86 85 86 85 86 88 89
14 13 13 17 27 37 40 42 44 48 50 55 57 59 58 55 61 69 73 72 74 77 79 84 89 94 95 91 86 85 84 83 83 84 84 88 89 88
13 14 22 34 36 38 40 43 46 49 53 58 60 62 63 59 59 65 71 74 74 77 81 84 87 90 90 91 93 88 82 80 86 91 90 89 89 87
17 27 34 35 37 39 42 45 47 50 55 61 64 67 68 69 66 67 68 71 74 79 85 88 90 91 89 87 89 92 85 86 88 90 92 92 91 89
29 34 36 36 39 42 44 46 48 51 57 62 66 69 71 72 72 69 70 71 71 77 86 93 95 95 92 90 90 90 94 89 91 92 94 96 93 88
35 37 37 40 43 46 49 52 54 54 59 63 66 68 70 72 74 74 70 69 71 76 83 93 96 97 95 95 93 91 92 93 90 89 88 88 88 86
39 40 42 45 48 52 54 56 57 58 61 63 66 68 68 70 72 75 77 62 60 70 79 90 93 94 95 95 95 93 91 92 96 96 95 93 90 86
43 46 48 51 53 56 59 60 62 62 63 64 65 66 65 65 70 77 73 61 54 63 76 86 91 94 95 95 95 94 94 95 95 92 93 96 94 90

GFSNE_prec_cthk_057.txt.gz
RH
93 96 94 90 87 88 95 89 84 87 92 81 77 85 75 86 88 82 76 70 62 52 44 40 36 35 35 34 33 32 30 31 36 35 34 33 33 35
92 95 94 87 89 91 89 88 87 92 86 89 85 96 98 95 88 79 72 61 52 46 41 34 32 35 35 33 30 31 33 35 34 33 34 34 34 34
94 91 90 90 91 92 90 92 92 92 94 90 97 97 88 83 74 62 58 53 48 36 30 29 28 29 29 29 29 30 32 32 31 31 35 36 36 36
83 94 89 91 95 93 92 96 95 98 89 95 90 86 79 70 66 61 50 40 34 31 27 23 22 23 23 25 29 29 30 30 31 33 35 34 36 36
88 89 92 93 95 97 96 95 98 89 96 90 83 72 63 57 49 40 36 33 28 23 23 25 24 25 24 24 27 29 28 28 28 29 30 30 32 34
92 93 94 98 99 98 98 91 93 87 79 76 68 59 48 41 38 33 30 24 21 23 25 26 25 25 26 27 26 27 28 29 30 33 37 37 37 39
94 98 98 98 96 91 88 85 78 70 56 47 42 37 33 29 29 26 23 25 26 25 26 27 28 29 32 33 34 35 35 36 37 40 44 46 50 50
98 97 95 90 86 81 76 59 44 38 36 32 28 27 27 25 22 22 28 30 30 28 30 34 35 34 34 35 35 36 36 39 42 50 53 55 58 58
91 93 88 80 64 46 37 29 22 21 23 25 24 23 22 19 20 26 29 31 32 33 37 35 36 33 34 33 36 37 38 41 45 54 63 68 70 68
76 57 45 37 29 22 18 15 15 16 17 18 18 16 16 23 29 31 33 36 39 41 40 36 39 36 36 35 38 42 46 47 50 58 64 67 68 70
40 30 23 18 15 13 16 14 15 15 15 13 13 17 24 28 32 36 42 45 42 40 46 50 47 41 36 36 40 45 50 54 55 58 62 66 70 70
21 17 15 12 11 18 18 18 15 13 13 15 23 28 33 37 43 46 46 44 46 53 58 58 57 54 47 40 42 47 50 56 60 60 60 60 60 61
15 14 12 12 19 17 16 12 12 17 20 28 33 37 42 47 49 48 47 49 60 62 65 65 62 64 65 60 59 59 60 59 59 60 63 63 62 63
14 13 12 13 11 11 11 13 22 29 32 35 39 44 49 51 50 49 51 59 64 66 68 70 69 70 70 71 72 73 74 74 74 73 75 78 79 80
14 12 12 12 11 14 19 29 32 33 35 39 43 48 50 51 52 49 53 60 65 69 70 72 74 76 77 78 79 78 75 78 79 81 82 82 81 83
13 12 12 13 17 26 30 32 34 36 38 41 46 49 51 54 56 55 53 57 59 66 69 72 77 80 82 85 85 79 81 82 80 80 80 84 83 82
13 14 15 22 30 31 33 34 36 39 41 43 47 50 54 58 61 63 62 60 63 63 65 72 78 82 86 89 84 83 80 79 80 82 84 85 84 83
15 17 26 31 32 33 34 37 38 40 42 44 49 53 57 59 61 64 66 65 61 63 65 70 74 80 86 90 90 84 83 83 87 87 88 90 89 91
20 30 32 33 34 35 37 38 40 43 47 50 52 55 57 59 61 63 65 66 66 58 59 66 72 82 83 83 89 90 84 85 87 87 89 91 91 91
32 33 34 35 37 40 43 45 47 50 51 53 54 57 59 60 60 61 63 68 68 56 50 60 71 82 88 87 84 85 89 86 89 90 89 90 90 89
34 35 37 39 42 45 49 51 52 54 55 57 58 60 60 60 60 60 65 70 68 64 54 54 69 80 89 90 87 88 87 94 95 92 90 88 87 86
37 39 42 45 48 52 55 57 58 61 62 62 62 61 61 61 61 64 68 68 67 68 58 55 65 74 87 90 90 90 89 91 96 97 97 95 93 89
41 44 47 52 55 60 63 65 69 69 67 67 65 65 65 64 65 68 70 70 68 66 59 55 65 73 84 92 93 93 93 92 92 90 90 94 95 94

GFSNE_prec_cthk_060.txt.gz
RH
89 92 97 98 98 98 91 85 85 85 82 83 83 88 90 94 86 80 86 96 92 86 80 69 58 50 43 41 37 36 36 33 32 36 41 38 38 38
86 92 90 98 98 94 89 89 91 90 87 87 94 95 95 95 97 96 90 87 79 73 66 57 52 48 43 35 36 36 36 37 38 39 40 40 39 38
78 81 84 85 94 89 93 88 92 95 93 95 96 98 98 98 96 91 86 83 76 68 59 51 44 38 35 39 40 38 36 34 35 35 35 35 36 36
69 71 73 74 77 83 87 96 93 95 99 99 98 97 97 96 91 79 77 70 63 51 43 35 32 29 28 26 26 27 29 29 30 31 31 30 32 34
71 69 69 67 76 84 91 93 95 97 97 96 96 90 85 83 79 67 55 41 37 31 27 25 22 22 22 21 22 26 25 25 30 31 31 31 31 32
70 69 72 81 97 98 96 97 97 97 92 84 86 80 70 53 44 37 32 28 23 18 21 21 21 23 24 24 23 24 24 24 24 24 28 30 30 31
74 78 97 95 96 95 97 95 90 86 78 63 52 38 32 31 28 24 22 20 20 20 23 25 26 25 25 26 26 25 25 25 26 27 32 33 35 39
89 96 98 96 98 92 86 82 64 49 36 32 25 23 23 21 21 19 18 21 23 24 29 30 33 33 31 29 28 27 27 28 29 30 36 36 37 39
98 98 96 89 79 65 50 34 26 18 16 19 19 18 17 18 17 14 24 27 31 35 38 37 39 37 36 36 33 31 31 32 32 34 39 42 41 45
83 77 66 49 39 29 22 13 12 14 14 14 16 17 17 17 22 27 32 36 42 46 45 39 40 44 48 50 43 34 35 36 38 39 42 48 47 46
47 39 31 26 20 14 16 13 17 15 11 10 9 10 15 24 29 34 39 42 41 41 42 43 51 56 56 54 50 47 42 42 46 48 47 49 52 55
26 23 18 14 12 16 18 18 14 14 12 11 16 23 27 30 34 38 40 40 41 43 51 56 58 59 58 60 60 59 58 59 62 63 64 63 64 67
16 15 13 12 14 12 11 16 12 15 21 24 26 29 32 36 39 41 42 44 45 48 57 61 60 62 63 62 67 67 68 72 74 75 73 70 68 71
16 15 14 11 10 11 12 12 19 24 26 27 30 33 36 40 42 44 46 49 50 51 57 63 61 63 64 65 68 72 74 78 77 75 78 76 73 75
15 14 13 12 12 15 17 22 26 28 30 31 34 36 40 42 44 47 50 54 57 58 60 62 63 63 64 68 72 74 75 77 78 77 76 77 77 78
18 17 15 15 18 23 26 27 29 31 34 35 37 40 42 45 48 51 52 54 56 58 60 60 59 61 63 68 76 75 78 79 78 78 82 84 84 83
19 18 17 21 28 29 29 30 32 35 37 39 40 43 48 52 53 53 54 55 56 56 60 60 53 56 61 69 76 81 79 80 80 81 83 85 85 89
22 21 26 31 31 31 32 34 36 38 40 42 46 50 53 55 56 57 57 58 58 60 63 59 54 50 58 70 85 85 85 82 85 86 87 87 87 90
26 31 33 33 32 33 35 37 39 42 46 48 50 54 56 58 59 58 57 57 60 65 64 65 62 57 58 66 80 93 85 86 86 87 91 92 91 89
33 35 34 34 35 36 39 42 46 50 52 53 56 59 61 61 60 59 59 60 62 65 65 66 63 61 64 69 72 82 89 87 88 88 87 89 89 90
35 36 38 38 39 42 45 50 54 58 59 59 63 65 65 63 64 64 64 66 66 67 66 64 59 58 63 68 70 79 89 93 93 92 89 88 86 85
36 39 40 43 44 49 54 58 62 66 67 70 70 70 69 69 70 70 70 70 71 71 67 61 59 56 60 68 69 75 86 90 94 95 96 94 89 86
36 40 42 47 51 55 61 65 69 71 75 77 76 73 72 72 72 72 73 72 73 72 68 66 62 58 59 67 68 72 82 90 90 91 92 93 92 89

GFSNE_prec_cthk_063.txt.gz
RH
74 75 72 78 88 97 99 97 97 93 97 95 92 86 88 90 89 90 91 94 95 94 95 92 81 70 66 63 59 55 52 50 49 45 42 42 45 44
72 77 83 86 89 91 92 93 96 95 90 90 89 88 91 93 91 93 97 96 96 94 91 84 74 71 68 61 56 51 52 49 45 43 43 45 45 44
76 79 80 81 83 99 99 87 97 90 90 95 91 94 96 97 96 95 95 94 91 83 79 75 70 61 55 49 44 42 43 42 39 38 39 41 40 36
77 77 78 82 89 90 87 82 86 85 82 81 82 93 94 93 94 91 87 85 79 69 55 45 36 30 29 29 27 25 25 27 28 28 28 32 34 35
71 78 80 79 80 87 78 85 76 76 95 97 98 97 96 91 86 74 62 51 41 31 23 18 17 17 17 18 19 20 22 24 27 27 27 27 27 27
78 75 76 79 82 79 74 77 80 87 97 96 91 83 72 58 46 37 26 22 18 15 14 14 17 16 17 18 19 20 20 21 22 22 25 26 26 26
82 78 80 83 78 77 84 93 95 90 87 81 70 55 42 30 24 20 18 15 11 11 14 17 21 20 21 23 24 26 27 28 29 29 29 30 30 30
94 89 86 82 81 86 94 92 82 69 62 47 32 24 17 16 15 15 14 12 17 18 23 23 27 28 30 29 28 29 30 30 33 35 35 33 33 34
92 90 96 98 93 87 76 65 50 35 24 17 14 14 16 15 15 14 15 24 28 28 33 30 30 27 27 29 32 34 37 39 39 36 33 32 36 37
94 89 81 73 63 48 38 31 24 17 14 13 13 14 14 16 17 24 28 30 31 32 35 31 30 30 34 38 43 45 45 46 46 46 44 43 46 48
56 43 36 32 27 22 18 15 16 18 17 16 11 10 10 15 22 26 29 33 33 32 35 35 34 37 41 44 47 49 51 52 52 53 53 56 60 61
25 23 19 16 14 14 14 19 18 17 17 15 16 19 22 24 28 31 34 36 38 38 41 42 42 45 43 44 48 52 55 56 59 61 63 65 69 68
18 16 15 14 13 13 12 13 18 16 21 21 23 25 27 30 33 36 38 40 42 44 46 50 50 50 52 47 45 51 56 62 66 68 69 70 69 68
19 19 20 16 15 14 14 15 17 21 24 25 26 27 30 32 34 37 39 43 46 47 49 51 51 54 54 49 45 48 57 67 71 70 71 72 70 68
21 20 19 19 18 19 20 23 26 27 27 27 28 31 34 35 36 38 42 47 48 49 51 53 54 58 59 53 48 46 54 67 75 74 72 73 72 74
25 23 23 22 23 26 29 30 30 29 28 30 32 34 36 37 40 43 48 48 49 50 52 53 58 60 58 58 52 49 58 70 74 76 74 74 75 78
28 28 28 28 31 33 32 32 31 31 31 33 35 37 38 42 45 49 51 52 52 52 53 59 62 61 61 60 52 52 60 71 79 77 78 78 81 84
30 30 32 35 34 34 34 34 34 34 36 38 40 42 46 48 49 53 56 56 55 56 59 63 64 63 62 59 57 53 62 71 81 82 83 83 84 89
32 35 37 36 35 36 36 35 36 39 42 45 48 52 53 54 56 59 58 59 59 61 65 66 67 67 61 55 55 66 66 67 79 87 89 90 87 87
35 36 38 37 38 38 37 39 41 45 50 54 58 60 59 61 64 63 64 66 67 68 69 72 73 71 66 60 53 51 66 68 73 84 88 89 91 90
34 37 37 39 40 41 42 44 49 54 60 63 67 68 69 69 68 68 70 72 72 72 71 72 74 73 69 65 58 53 56 68 73 83 89 89 89 89
31 31 37 39 42 43 45 50 56 62 66 70 73 76 76 75 72 71 71 72 74 76 74 74 74 71 69 68 62 56 54 60 67 78 93 94 91 86
28 29 35 39 42 46 49 54 62 69 72 75 78 77 78 78 76 73 73 73 73 73 74 73 72 70 68 67 64 59 57 58 61 71 87 95 94 93

GFSNE_prec_cthk_066.txt.gz
RH
66 77 85 85 85 84 85 84 86 85 91 92 96 97 97 95 95 96 90 93 92 92 91 89 89 90 89 82 78 72 68 65 64 64 59 55 57 60
62 73 82 88 89 91 92 92 93 91 91 98 94 99 97 96 94 96 93 91 92 90 87 89 86 78 77 75 71 64 61 63 61 58 56 58 58 56
71 71 75 88 93 98 99 97 95 94 98 98 96 98 94 89 81 79 80 86 92 91 84 81 72 66 60 52 43 38 41 39 38 38 40 44 48 49
79 86 85 85 91 95 96 98 90 89 91 92 93 88 82 82 90 93 93 88 81 71 53 39 28 20 15 14 14 17 18 19 21 24 25 26 27 29
86 86 93 91 88 89 91 87 88 94 85 90 82 81 80 83 91 88 76 59 40 28 19 11 9 9 10 11 12 13 14 16 19 22 23 24 24 25
90 95 95 92 94 89 84 87 79 90 90 84 81 85 88 79 70 55 36 27 21 15 9 8 9 11 13 16 18 19 20 21 24 26 26 26 25 26
82 87 93 96 99 89 86 90 90 80 78 83 82 74 64 52 37 30 22 16 12 9 10 13 17 18 20 21 22 22 22 26 29 29 30 31 31 32
81 91 98 98 95 98 96 84 85 80 76 71 55 40 33 30 24 16 14 13 10 15 17 18 20 21 21 22 23 24 28 33 36 36 37 39 40 40
96 98 97 98 96 94 91 82 69 59 45 36 27 23 17 17 16 15 14 13 17 20 20 19 21 22 24 25 27 30 32 37 41 44 47 48 48 47
94 90 82 71 61 52 44 38 31 24 18 16 14 13 14 15 15 13 16 19 22 23 24 22 24 25 27 28 29 32 39 43 46 48 52 53 54 55
35 34 30 26 24 20 18 16 15 16 17 16 13 12 12 11 14 19 22 25 26 26 27 28 30 31 35 35 34 36 42 46 47 49 52 57 59 61
20 18 17 16 15 14 14 16 18 17 17 15 16 17 18 22 23 24 27 28 30 31 32 34 35 35 33 40 42 37 37 42 46 48 51 57 64 64
19 20 19 18 18 17 17 17 18 19 18 19 23 24 25 26 27 28 30 32 34 36 38 41 39 40 42 39 43 44 38 36 41 45 53 61 65 66
23 23 23 22 21 22 22 22 23 25 26 27 28 28 28 28 30 31 33 36 38 40 44 46 44 45 46 45 44 44 42 39 40 45 57 68 70 68
27 27 26 26 25 25 26 28 29 30 30 30 31 30 30 32 33 35 37 38 42 47 48 50 47 48 51 51 48 48 43 41 43 49 61 71 70 69
29 29 29 29 29 30 32 32 32 32 32 33 33 32 33 35 37 39 40 44 48 51 53 52 52 54 56 56 54 49 44 47 46 54 62 71 73 72
31 30 30 30 33 35 35 34 34 35 36 35 35 36 38 41 43 45 49 51 53 55 54 57 60 60 61 61 58 54 48 46 51 55 62 72 78 76
32 32 32 35 36 37 35 34 37 37 35 36 38 42 45 49 52 55 56 57 59 59 60 63 65 64 65 67 68 61 55 50 51 54 59 66 77 83
33 31 34 36 36 35 35 37 38 36 38 41 46 50 55 58 63 62 63 65 64 65 67 71 71 69 66 65 66 72 61 55 54 55 59 64 72 83
31 31 33 35 36 36 38 41 40 39 42 48 54 59 62 66 69 71 70 68 68 68 71 74 75 73 71 68 63 63 69 61 60 58 57 61 67 81
31 30 31 35 38 38 42 44 42 43 47 53 59 63 67 71 75 75 75 73 70 70 69 70 72 72 73 70 63 57 58 61 61 63 60 61 65 79
33 31 30 34 39 41 44 45 45 46 52 58 64 68 71 75 75 76 78 77 75 72 70 71 72 71 70 69 62 58 57 52 56 58 59 59 67 77
36 33 31 32 36 41 45 47 48 52 56 62 67 71 75 76 77 79 79 79 78 76 74 72 72 73 72 68 65 61 58 53 54 54 52 57 62 85

GFSNE_prec_cthk_069.txt.gz
RH
43 47 52 57 63 69 85 94 98 98 95 91 91 91 87 90 98 97 98 99 99 98 94 96 92 87 81 82 83 78 72 71 71 72 71 65 64 67
48 53 59 66 71 74 79 86 89 97 97 95 94 93 97 95 98 98 98 98 97 89 85 83 84 85 88 81 75 67 60 60 59 55 54 54 56 55
49 55 67 71 77 78 83 85 84 88 95 99 95 98 98 97 98 97 97 94 91 87 90 94 86 77 65 46 32 26 27 27 26 27 28 28 30 31
53 61 62 71 78 80 83 90 92 97 96 98 98 99 98 97 97 93 87 86 84 83 87 80 50 30 20 16 15 16 16 17 19 19 19 20 21 22
58 58 65 71 76 80 85 92 95 96 96 98 95 95 93 88 88 89 85 90 84 64 42 32 25 16 9 9 13 16 17 18 20 21 22 23 23 24
64 64 67 70 75 89 94 97 96 97 95 95 94 88 85 85 83 78 67 57 42 32 24 12 8 10 11 14 16 17 17 17 17 18 20 22 24 25
67 74 72 77 77 87 92 95 97 92 94 95 87 84 79 72 60 48 39 32 23 13 9 11 13 16 19 19 19 18 18 18 20 24 27 29 30 32
74 78 83 88 91 94 97 96 98 97 94 88 76 60 54 46 36 28 19 15 12 11 14 17 19 21 20 20 20 20 21 21 22 23 29 34 37 41
78 81 83 85 88 88 81 73 62 55 51 43 35 28 22 17 16 15 13 12 14 18 21 22 21 21 22 22 23 23 24 25 26 26 29 37 42 45
31 30 30 30 28 26 25 23 22 18 16 16 16 16 16 16 15 14 13 19 23 26 25 22 23 24 27 28 28 30 31 31 31 31 31 36 42 45
16 16 16 16 16 16 16 16 17 18 20 21 20 18 17 17 17 19 24 26 28 28 26 26 26 27 29 31 33 35 35 32 32 34 35 37 39 43
20 20 20 20 20 20 19 20 21 22 22 22 22 23 23 24 26 27 28 29 30 29 30 30 31 30 30 35 39 39 39 37 37 36 37 37 39 40
23 24 24 23 23 23 23 23 24 24 24 24 26 27 28 29 31 32 32 31 31 31 33 35 35 35 37 37 40 42 41 42 40 38 39 40 42 45
26 26 26 26 26 26 26 26 27 28 29 30 30 30 31 31 31 31 31 32 33 35 37 39 39 40 41 41 44 45 45 44 38 39 43 44 45 51
29 29 29 29 28 28 29 31 33 32 32 32 32 32 32 31 31 32 34 36 38 40 41 42 44 45 46 49 49 50 48 48 46 44 44 46 46 52
31 31 30 29 30 30 33 35 34 33 32 33 34 34 32 32 34 36 39 41 43 44 47 51 50 50 53 55 56 55 57 58 54 50 47 47 48 53
32 31 31 31 33 35 35 33 34 34 34 36 36 35 35 36 39 43 46 48 51 54 55 56 55 58 61 61 60 60 61 60 57 53 51 49 49 54
34 32 32 32 35 37 36 36 37 37 38 39 40 40 39 42 47 51 55 59 59 60 61 61 61 63 63 64 64 64 65 62 58 54 53 52 50 52
36 33 32 32 36 39 39 39 38 40 42 42 43 42 46 50 54 59 63 65 67 67 65 64 65 66 63 61 65 72 65 62 57 53 51 51 52 51
37 34 33 33 36 39 40 40 41 43 44 45 45 47 51 54 58 62 66 69 71 71 70 69 67 67 68 65 62 63 69 59 57 53 48 49 50 51
41 38 37 36 36 39 42 43 44 47 48 47 47 51 55 61 63 66 69 72 73 74 74 75 74 72 70 69 65 62 62 63 58 55 51 50 50 52
46 43 42 41 40 41 44 46 48 50 51 52 52 56 60 64 68 71 76 76 76 75 74 74 75 76 75 73 69 64 59 61 58 55 55 56 56 54
54 50 49 48 45 44 45 46 50 50 52 54 54 58 63 68 73 78 80 80 77 74 74 74 76 79 78 76 70 64 62 61 54 51 52 54 54 53